EW5461 Weather Reports


Display with metric or nautical units.
time (UTC)temp
F
wind
direction
speed
MPH
gust
MPH
rain 1hr
in
rain 24hr
in
rain mn
in
humidity
%
barometer
mb
20260906223025 102 135 0.0 6.0 0.00 0.00 0.00 39 1008.4
20260906221529 102 47 1.0 6.0 0.00 0.00 0.00 40 1008.5
20260906220032 101 78 1.0 4.0 0.00 0.00 0.00 40 1008.6
20260906214521 101 82 1.0 4.0 0.00 0.00 0.00 40 1008.7
20260906213018 101 95 1.0 9.0 0.00 0.00 0.00 39 1009.0
20260906211514 101 51 1.0 4.0 0.00 0.00 0.00 40 1009.1
20260906210013 99 105 1.0 5.0 0.00 0.00 0.00 41 1009.4
20260906204510 99 161 1.0 9.0 0.00 0.00 0.00 42 1009.6
20260906203011 99 72 1.0 7.0 0.00 0.00 0.00 43 1009.8
20260906201507 100 40 2.0 6.0 0.00 0.00 0.00 42 1009.8
20260906200005 101 112 1.0 8.0 0.00 0.00 0.00 42 1009.9
20260906194502 101 107 1.0 9.0 0.00 0.00 0.00 42 1010.1
20260906193100 100 123 2.0 7.0 0.00 0.00 0.00 44 1010.2
20260906191609 99 107 3.0 7.0 0.00 0.00 0.00 46 1010.4
20260906190054 98 156 2.0 9.0 0.00 0.00 0.00 46 1010.5
20260906184554 98 30 1.0 6.0 0.00 0.00 0.00 47 1010.7
20260906183046 97 22 1.0 6.0 0.00 0.00 0.00 48 1010.9
20260906181558 98 71 1.0 5.0 0.00 0.00 0.00 49 1011.2
20260906180041 97 142 1.0 5.0 0.00 0.00 0.00 49 1011.3
20260906174537 97 162 2.0 10.0 0.00 0.00 0.00 49 1011.6
20260906173034 96 109 1.0 6.0 0.00 0.00 0.00 49 1012.0
20260906171535 96 51 2.0 8.0 0.00 0.00 0.00 49 1012.0
20260906170026 95 102 1.0 6.0 0.00 0.00 0.00 51 1012.2
20260906164523 94 148 1.0 7.0 0.00 0.00 0.00 53 1012.4
20260906163026 94 110 1.0 6.0 0.00 0.00 0.00 53 1012.5
20260906161520 93 117 2.0 6.0 0.00 0.00 0.00 55 1012.5
20260906160014 92 113 1.0 5.0 0.00 0.00 0.00 58 1012.5
20260906154511 91 159 0.0 3.0 0.00 0.00 0.00 61 1012.5
20260906153008 90 159 1.0 5.0 0.00 0.00 0.00 63 1012.5
20260906151508 89 32 1.0 6.0 0.00 0.00 0.00 63 1012.3
20260906150005 89 162 0.0 2.0 0.00 0.00 0.00 65 1012.1
20260906144501 88 162 0.0 5.0 0.00 0.00 0.00 66 1012.0
20260906143059 87 163 2.0 5.0 0.00 0.00 0.00 67 1012.1
20260906141559 86 48 0.0 0.0 0.00 0.00 0.00 69 1012.2
20260906140105 84 48 0.0 0.0 0.00 0.00 0.00 72 1012.2
20260906134604 83 48 0.0 2.0 0.00 0.00 0.00 75 1012.0
20260906133055 81 135 0.0 1.0 0.00 0.00 0.00 78 1012.0
20260906131552 79 110 1.0 3.0 0.00 0.00 0.00 81 1012.0
20260906130108 78 171 0.0 3.0 0.00 0.00 0.00 82 1012.1
20260906124553 78 171 0.0 1.0 0.00 0.00 0.00 82 1012.0
20260906123049 78 171 0.0 0.0 0.00 0.00 0.00 82 1011.9
20260906121557 78 171 0.0 0.0 0.00 0.00 0.00 81 1011.7
20260906120044 78 171 0.0 1.0 0.00 0.00 0.00 81 1011.4
20260906114552 78 171 0.0 0.0 0.00 0.00 0.00 80 1011.4
20260906113046 78 171 0.0 0.0 0.00 0.00 0.00 80 1011.2
20260906111539 79 171 0.0 1.0 0.00 0.00 0.00 79 1011.1
20260906110037 79 171 0.0 1.0 0.00 0.00 0.00 79 1010.9
20260906104537 79 171 0.0 0.0 0.00 0.00 0.00 79 1010.8
20260906103035 79 171 0.0 0.0 0.00 0.00 0.00 78 1010.9
20260906101534 80 171 0.0 0.0 0.00 0.00 0.00 77 1010.8
20260906100033 80 171 0.0 0.0 0.00 0.00 0.00 77 1010.7
20260906094530 80 171 0.0 2.0 0.00 0.00 0.00 76 1010.6
20260906093029 81 171 0.0 2.0 0.00 0.00 0.00 75 1010.4
20260906091533 81 171 0.0 4.0 0.00 0.00 0.00 75 1010.3
20260906090026 81 171 2.0 5.0 0.00 0.00 0.00 75 1010.2
20260906084530 81 171 1.0 5.0 0.00 0.00 0.00 74 1010.2
20260906083023 82 158 2.0 6.0 0.00 0.00 0.00 74 1010.1
20260906081524 82 158 2.0 6.0 0.00 0.00 0.00 74 1010.1
20260906080018 82 168 3.0 5.0 0.00 0.00 0.00 73 1010.4
20260906061544 84 178 2.0 5.0 0.00 0.00 0.00 70 1010.7
20260906054539 85 161 2.0 6.0 0.00 0.00 0.00 69 1010.8
20260906053038 85 211 2.0 6.0 0.00 0.00 0.00 69 1010.8
20260906051535 85 167 0.0 4.0 0.00 0.00 0.00 69 1011.0
20260906050031 0 0.0 0.0 0.00 0.00 0.00 1011.0
20260906044528 0 0.0 0.0 0.00 0.00 0.00 1010.7
20260906043025 0 0.0 0.0 0.00 0.00 0.00 1010.8
20260906041526 0 0.0 0.0 0.00 0.00 0.00 1010.7
20260906040025 0 0.0 0.0 0.00 0.00 0.00 1010.7
20260906034512 0 0.0 0.0 0.00 0.00 0.00 1010.7
20260906033004 0 0.0 0.0 0.00 0.00 0.00 1010.7
20260906031625 0 0.0 0.0 0.00 0.00 0.00 1010.6
20260906030056 0 0.0 0.0 0.00 0.00 0.00 1010.6
20260906024556 0 0.0 0.0 0.00 0.00 0.00 1010.4
20260906023105 0 0.0 0.0 0.00 0.00 0.00 1010.1
20260906021543 0 0.0 0.0 0.00 0.00 0.00 1009.9
20260906020048 0 0.0 0.0 0.00 0.00 0.00 1009.6
20260906014534 0 0.0 0.0 0.00 0.00 0.00 1009.3
20260906013029 0 0.0 0.0 0.00 0.00 0.00 1009.0
20260906011525 0 0.0 0.0 0.00 0.00 0.00 1008.7
20260906010022 0 0.0 0.0 0.00 0.00 0.00 1008.6
20260906004516 0 0.0 0.0 0.00 0.00 0.00 1008.6
20260906003012 0 0.0 0.0 0.00 0.00 0.00 1008.6
20260906001508 0 0.0 0.0 0.00 0.00 0.00 1008.5
20260906000005 99 142 2.0 7.0 0.00 0.00 0.00 40 1008.4
20260905234503 100 88 1.0 4.0 0.00 0.00 0.00 40 1008.3
20260905233003 101 104 1.0 3.0 0.00 0.00 0.00 40 1008.3
20260905231504 100 139 0.0 7.0 0.00 0.00 0.00 40 1008.3
20260905230002 101 157 1.0 6.0 0.00 0.00 0.00 38 1008.2
20260905224501 101 74 1.0 5.0 0.00 0.00 0.00 38 1008.3